Location: Mactaquac Provincial Park
(45.9573°N, 66.8897°W)
Time: 20:17:04
(UTC-04:00)

Cosmos 1867 - Visible Passes

Search period start: 24 February 2017 00:00
Search period end: 06 March 2017 00:00
Orbit: 776 x 800 km, 65.0° (Epoch: 24 February)

Date Brightness Start Highest point End Pass type
(mag) Time Alt. Az. Time Alt. Az. Time Alt. Az.
24 Feb 5.6 03:30:53 25° ENE 03:30:53 25° ENE 03:33:29 10° NE visible
24 Feb 4.0 05:11:34 42° WNW 05:12:03 43° NW 05:17:17 10° NNE visible
25 Feb 6.2 03:00:21 15° ENE 03:00:21 15° ENE 03:01:33 10° NE visible
25 Feb 4.0 04:41:01 51° NNW 04:41:01 51° NNW 04:45:42 10° NNE visible
25 Feb 5.3 06:21:41 10° WNW 06:25:07 17° NNW 06:28:34 10° NNE visible
26 Feb 4.5 04:10:25 42° NNE 04:10:25 42° NNE 04:14:05 10° NNE visible
26 Feb 5.2 05:51:05 16° WNW 05:53:10 19° NNW 05:57:04 10° NNE visible
27 Feb 5.2 03:39:46 30° NE 03:39:46 30° NE 03:42:27 10° NE visible
27 Feb 4.9 05:20:25 22° NW 05:21:16 23° NNW 05:25:34 10° NNE visible
28 Feb 5.8 03:09:04 20° NE 03:09:04 20° NE 03:10:46 10° NE visible
28 Feb 4.8 04:49:44 27° NNW 04:49:44 27° NNW 04:54:02 10° NNE visible
28 Feb 5.7 06:33:12 10° NNW 06:34:55 11° NNW 06:36:38 10° N visible
01 Mar 6.3 02:38:20 14° NE 02:38:20 14° NE 02:39:01 10° NE visible
01 Mar 4.9 04:18:59 29° NNW 04:18:59 29° NNW 04:22:30 10° NNE visible
01 Mar 5.7 06:00:34 10° NW 06:02:52 12° NNW 06:05:10 10° N visible
02 Mar 5.2 03:48:13 27° N 03:48:13 27° N 03:50:57 10° NNE visible
02 Mar 5.6 05:28:52 12° NW 05:30:51 14° NNW 05:33:42 10° N visible
03 Mar 5.7 03:17:25 22° NNE 03:17:25 22° NNE 03:19:21 10° NNE visible
03 Mar 5.4 04:58:04 16° NW 04:58:51 16° NNW 05:02:13 10° NNE visible
04 Mar 6.1 02:46:35 17° NNE 02:46:35 17° NNE 02:47:46 10° NNE visible
04 Mar 5.4 04:27:15 19° NNW 04:27:15 19° NNW 04:30:43 10° NNE visible
05 Mar 6.5 02:15:44 12° NE 02:15:44 12° NE 02:16:08 10° NE visible
05 Mar 5.5 03:56:23 20° NNW 03:56:23 20° NNW 03:59:12 10° NNE visible
05 Mar 5.9 05:39:49 10° NNW 05:40:45 10° N 05:41:41 10° N visible
